[[{"header":{"parameterUnit":"m.s-1","parameterCategory":1,"la1":30.2991,"la2":30.254,"lo1":-89.0895,"lo2":-89.0444,"dy":0.0017,"dx":0.0017,"nx":28,"ny":28,"refTime":"2023-07-27T09:00:00:Z","depth":0,"parameterNumber":2,"parameterNumberName":"U-component_of_WINDS"},"data":[0,0,0,0,0,0,0,0,0,0,0,0,0,0,0,0,0,0,0,0,0,0,0,0,0,0,0,0,0,0,0,0,0,0,0,0,0,0,0,0,0,0,0,0,0,0,0,0,0,0,0,0,0,0,0,0,0,0,1.0336,1.0336,0,1.0315,1.0315,1.0315,1.025,1.0248,1.0247,1.0246,1.0226,1.0226,1.0227,0,0,0,0,0,0,0,0,0,0,0,0,0,1.0323,1.0323,1.0337,1.0336,1.0336,1.0315,1.0315,1.0315,1.025,1.0248,1.0247,1.0245,1.0225,1.0226,1.0227,0,0,0,0,0,0,0,0,0,0,0,0,0,1.0318,1.0324,1.0337,1.0301,1.0298,1.0315,1.0315,1.0315,1.025,1.0248,1.0246,1.0244,1.0225,1.0226,1.0227,1.0278,0,0,1.0231,1.0232,0,0,0,0,0,0,0,0,1.0318,1.0319,1.0307,1.0304,1.03,1.0283,1.0303,1.0302,1.0251,1.0269,1.0246,1.0243,1.0247,1.0246,1.0247,1.0277,1.0276,1.0231,1.0232,1.0233,1.0233,0,0,0,0,0,0,0,1.0319,1.0319,1.0328,1.0307,1.0302,1.0287,1.0284,1.0302,1.027,1.0267,1.0262,1.026,1.0244,1.0246,1.0246,1.0276,1.0231,1.0232,1.0233,1.0234,1.0347,1.0349,0,0,0,0,0,0,1.0324,1.032,1.0329,1.0327,1.0304,1.0289,1.0285,1.0291,1.027,1.0264,1.0262,1.0257,1.0245,1.0244,1.0245,1.0303,1.0232,1.0234,1.0234,1.0345,1.0348,1.035,0,0,0,0,0,0,1.0324,1.0325,1.033,1.0322,1.0322,1.0291,1.0298,1.0291,1.0292,1.0266,1.026,1.0269,1.0243,1.0243,1.027,1.0301,1.0234,1.0235,1.0342,1.0346,1.0349,1.042,0,0,0,0,0,0,1.0324,1.0326,1.0344,1.0323,1.0322,1.0355,1.03,1.0292,1.0295,1.0288,1.0271,1.0266,1.0241,1.0269,1.0271,1.0302,1.0236,1.0339,1.0344,1.0348,1.0415,1.0425,1.0434,0,0,0,0,0,1.0324,1.0365,1.0346,1.0347,1.0345,1.0357,1.0357,1.0326,1.0297,1.0316,1.0299,1.0267,1.0297,1.0272,1.0274,1.0306,1.0337,1.0342,1.0347,1.041,1.0423,1.0434,0,0,0,0,0,0,1.0392,1.0362,1.034,1.0376,1.0369,1.0346,1.0369,1.0341,1.0343,1.0337,1.03,1.0297,1.0329,1.032,1.0292,1.0354,1.0312,1.0318,1.0359,1.0371,1.0381,1.0383,1.0237,0,0,0,0,0,1.0411,1.0423,1.0396,1.0431,1.0429,1.0399,1.0404,1.0381,1.0373,1.037,1.0355,1.0349,1.0357,1.0363,1.0369,1.0412,1.0408,1.0435,1.0445,1.0453,1.0459,1.0482,1.0494,1.0367,1.0367,1.0367,0,0,1.0451,1.0436,1.0446,1.0444,1.0436,1.045,1.0398,1.0414,1.0424,1.0373,1.0397,1.0386,1.0377,1.0413,1.0427,1.0406,1.0493,1.046,1.0467,1.0468,1.0489,1.0501,1.0512,1.037,1.037,1.0369,0,0,1.0531,1.052,1.0548,1.0541,1.053,1.051,1.0517,1.0498,1.0488,1.0512,1.0474,1.0485,1.05,1.0495,1.0495,1.0573,1.0544,1.0576,1.0628,1.0651,1.0661,1.0669,1.0698,1.0709,1.0581,1.0582,1.0582,0,1.0582,1.06,1.0566,1.0585,1.0586,1.0539,1.0567,1.0562,1.0554,1.0556,1.0532,1.0549,1.054,1.0574,1.0593,1.0594,1.0601,1.0578,1.0662,1.067,1.0678,1.0705,1.0716,1.0586,1.0585,1.0585,1.0584,0,1.0664,1.0678,1.0702,1.0694,1.0697,1.0721,1.0691,1.0699,1.0675,1.0659,1.0684,1.0671,1.0674,1.068,1.0657,1.0711,1.0698,1.0668,1.0626,1.0695,1.072,1.073,1.0591,1.059,1.0589,1.0588,0,0,1.0787,1.076,1.077,1.0766,1.075,1.076,1.0782,1.0784,1.0791,1.0787,1.0805,1.0818,1.0791,1.079,1.0767,1.0787,1.0851,1.0755,1.0754,1.0774,1.091,1.0933,1.0946,1.0831,1.0833,1.0834,1.0911,0,1.0864,1.0899,1.0868,1.091,1.0922,1.0878,1.0897,1.0889,1.0874,1.0883,1.0866,1.0876,1.0839,1.0838,1.0856,1.0839,1.0878,1.0833,1.0848,1.0849,1.0853,1.0958,1.0983,1.1056,1.092,1.0922,1.0923,0,1.0958,1.0957,1.1,1.0981,1.0985,1.1003,1.1002,1.1011,1.1002,1.0989,1.0989,1.096,1.0981,1.0938,1.0967,1.0937,1.0942,1.0934,1.0937,1.0938,1.0891,1.0963,1.1079,1.109,1.0938,1.0937,1.0936,0,1.1044,1.1054,1.1081,1.1079,1.1057,1.1071,1.1063,1.1051,1.1055,1.1055,1.1056,1.1059,1.1061,1.1064,1.1037,1.1008,1.1069,1.1024,1.106,1.1061,1.1076,1.1076,1.1195,1.1077,1.1077,1.1077,1.1077,0,1.1133,1.1161,1.1119,1.1136,1.1166,1.1131,1.1162,1.1149,1.114,1.1154,1.1115,1.1129,1.1092,1.1102,1.1081,1.1109,1.111,1.1101,1.1095,1.1105,1.1106,1.1108,1.1103,1.108,1.1079,1.1079,1.1078,0,1.1236,1.1209,1.1235,1.1212,1.1207,1.1231,1.1212,1.1226,1.1208,1.1226,1.1229,1.1201,1.1211,1.1184,1.119,1.1176,1.1216,1.1201,1.1219,1.1215,1.1253,1.125,1.1378,1.1393,1.1265,1.1267,1.1268,0,1.1295,1.1315,1.1295,1.1301,1.1294,1.1305,1.1308,1.1274,1.1279,1.127,1.1286,1.1293,1.1297,1.1315,1.1296,1.1301,1.1287,1.1331,1.1288,1.1297,1.1289,1.1289,1.1291,1.1341,1.1343,1.1344,1.1345,0,1.1403,1.1388,1.1394,1.1395,1.1399,1.1399,1.1395,1.1403,1.1366,1.1374,1.1384,1.1387,1.1393,1.14,1.1401,1.1393,1.1364,1.1359,1.1367,1.1378,1.1388,1.1384,1.1245,1.1356,1.1355,1.1354,1.1354,1.1353,1.1486,1.1502,1.149,1.1498,1.1491,1.1489,1.1502,1.1485,1.1492,1.1494,1.1474,1.1488,1.1479,1.1476,1.1472,1.1483,1.1462,1.1475,1.1478,1.1482,1.1489,1.1385,1.1483,1.1482,1.1482,1.1482,1.1481,0,1.1593,1.1583,1.159,1.1586,1.1592,1.1563,1.1557,1.1565,1.1577,1.1571,1.1575,1.1587,1.1594,1.1575,1.158,1.1592,1.1579,1.1595,1.1594,1.1593,1.1506,1.1499,1.1605,1.1605,1.1605,1.1605,1.1605,1.1605,1.1649,1.1675,1.1659,1.1682,1.1672,1.1685,1.1685,1.1683,1.1677,1.1692,1.1697,1.1684,1.1673,1.1677,1.1682,1.1676,1.1681,1.1701,1.1691,1.1611,1.1599,1.1587,1.158,1.1702,1.1702,1.1777,1.1778,1.1778]},{"header":{"parameterUnit":"m.s-1","parameterCategory":1,"la1":30.2991,"la2":30.254,"lo1":-89.0895,"lo2":-89.0444,"dy":0.0017,"dx":0.0017,"nx":28,"ny":28,"refTime":"2023-07-27T09:00:00:Z","depth":0,"parameterNumber":3,"parameterNumberName":"V-component_of_WINDS"},"data":[0,0,0,0,0,0,0,0,0,0,0,0,0,0,0,0,0,0,0,0,0,0,0,0,0,0,0,0,0,0,0,0,0,0,0,0,0,0,0,0,0,0,0,0,0,0,0,0,0,0,0,0,0,0,0,0,0,0,-0.4264,-0.4265,0,-0.4314,-0.4315,-0.4315,-0.4388,-0.4389,-0.4391,-0.4392,-0.4443,-0.4443,-0.4443,0,0,0,0,0,0,0,0,0,0,0,0,0,-0.4231,-0.4232,-0.4264,-0.4265,-0.4265,-0.4314,-0.4315,-0.4315,-0.4388,-0.4389,-0.4391,-0.4392,-0.4442,-0.4443,-0.4443,0,0,0,0,0,0,0,0,0,0,0,0,0,-0.426,-0.4232,-0.4264,-0.4307,-0.4312,-0.4314,-0.4315,-0.4316,-0.4388,-0.4389,-0.4391,-0.4393,-0.4442,-0.4443,-0.4443,-0.4406,0,0,-0.4444,-0.4444,0,0,0,0,0,0,0,0,-0.4258,-0.4261,-0.43,-0.4304,-0.4309,-0.4347,-0.4322,-0.4346,-0.4387,-0.4359,-0.4392,-0.4394,-0.4409,-0.4412,-0.4417,-0.4409,-0.4411,-0.4444,-0.4444,-0.4444,-0.4444,0,0,0,0,0,0,0,-0.4256,-0.4259,-0.4284,-0.4301,-0.4306,-0.4324,-0.433,-0.4327,-0.4373,-0.4361,-0.4367,-0.4372,-0.4412,-0.4417,-0.4419,-0.4412,-0.4444,-0.4444,-0.4444,-0.4444,-0.4375,-0.4374,0,0,0,0,0,0,-0.4248,-0.4257,-0.4282,-0.4285,-0.4288,-0.4323,-0.433,-0.4333,-0.4373,-0.4381,-0.437,-0.4375,-0.4416,-0.4419,-0.4421,-0.4381,-0.4444,-0.4444,-0.4444,-0.4377,-0.4375,-0.4373,0,0,0,0,0,0,-0.4247,-0.4249,-0.428,-0.4273,-0.4278,-0.4322,-0.4324,-0.4333,-0.4338,-0.4379,-0.4388,-0.4367,-0.4417,-0.4421,-0.441,-0.4384,-0.4444,-0.4444,-0.438,-0.4377,-0.4374,-0.4299,0,0,0,0,0,0,-0.4245,-0.4248,-0.4235,-0.4272,-0.4278,-0.4267,-0.4323,-0.4332,-0.4338,-0.4345,-0.4379,-0.4386,-0.4419,-0.4409,-0.441,-0.4385,-0.4445,-0.4382,-0.4378,-0.4375,-0.4304,-0.4294,-0.4286,0,0,0,0,0,-0.4244,-0.4212,-0.4234,-0.4236,-0.4262,-0.4266,-0.4269,-0.4308,-0.4336,-0.4323,-0.4349,-0.4385,-0.4386,-0.4407,-0.4409,-0.4384,-0.4384,-0.4379,-0.4375,-0.4309,-0.4296,-0.4286,0,0,0,0,0,0,-0.417,-0.4217,-0.4242,-0.4221,-0.4239,-0.4278,-0.4263,-0.4294,-0.4304,-0.431,-0.4358,-0.4365,-0.4347,-0.4365,-0.4387,-0.435,-0.4391,-0.4386,-0.4339,-0.4328,-0.4319,-0.4315,-0.4445,0,0,0,0,0,-0.4152,-0.4151,-0.4192,-0.417,-0.4177,-0.4218,-0.4221,-0.425,-0.427,-0.4278,-0.4304,-0.4322,-0.4327,-0.4328,-0.4335,-0.4308,-0.4316,-0.4291,-0.4282,-0.4274,-0.4269,-0.4256,-0.4245,-0.4358,-0.4358,-0.4358,0,0,-0.4113,-0.4139,-0.4135,-0.4155,-0.4173,-0.417,-0.4224,-0.4219,-0.4218,-0.4277,-0.4268,-0.4287,-0.4311,-0.4291,-0.4284,-0.4305,-0.424,-0.4268,-0.4262,-0.4262,-0.425,-0.424,-0.423,-0.4355,-0.4356,-0.4356,0,0,-0.4042,-0.4061,-0.4044,-0.406,-0.4086,-0.4113,-0.4109,-0.4144,-0.4159,-0.4151,-0.4195,-0.4194,-0.4201,-0.4216,-0.4224,-0.4159,-0.4192,-0.416,-0.411,-0.4097,-0.4088,-0.408,-0.4056,-0.4047,-0.4155,-0.4155,-0.4155,0,-0.399,-0.3989,-0.4032,-0.4024,-0.4032,-0.4085,-0.4069,-0.4082,-0.4108,-0.4112,-0.4135,-0.4145,-0.4165,-0.4149,-0.4133,-0.4139,-0.4135,-0.4155,-0.4086,-0.4078,-0.4072,-0.4049,-0.404,-0.4151,-0.4151,-0.4152,-0.4152,0,-0.3925,-0.3923,-0.3906,-0.393,-0.3936,-0.3924,-0.3964,-0.3965,-0.3993,-0.4018,-0.4009,-0.4034,-0.4047,-0.4046,-0.4073,-0.4034,-0.4046,-0.4077,-0.4118,-0.4056,-0.4036,-0.4028,-0.4145,-0.4146,-0.4148,-0.4149,0,0,-0.3807,-0.3855,-0.3848,-0.386,-0.3892,-0.3891,-0.3882,-0.3894,-0.3894,-0.391,-0.3903,-0.3908,-0.3936,-0.3946,-0.3976,-0.3964,-0.3909,-0.3996,-0.3997,-0.3978,-0.3867,-0.3843,-0.3833,-0.3932,-0.393,-0.3929,-0.3865,0,-0.3742,-0.3728,-0.3766,-0.3743,-0.3741,-0.3792,-0.3784,-0.3803,-0.3826,-0.3828,-0.3854,-0.3857,-0.3895,-0.3901,-0.3891,-0.3918,-0.3888,-0.3923,-0.3925,-0.3925,-0.3917,-0.3822,-0.3797,-0.3735,-0.3858,-0.3856,-0.3855,0,-0.3663,-0.3675,-0.3651,-0.3685,-0.3686,-0.3677,-0.3692,-0.3694,-0.3716,-0.3734,-0.3744,-0.3779,-0.3772,-0.3812,-0.3803,-0.3826,-0.3829,-0.3842,-0.3841,-0.3842,-0.3886,-0.382,-0.3717,-0.3707,-0.3843,-0.3844,-0.3845,0,-0.3579,-0.3589,-0.3577,-0.3585,-0.3624,-0.3617,-0.3632,-0.3657,-0.3662,-0.3674,-0.3678,-0.369,-0.3696,-0.3704,-0.3741,-0.3767,-0.3727,-0.377,-0.3741,-0.374,-0.373,-0.373,-0.3624,-0.3733,-0.3733,-0.3733,-0.3733,0,-0.3501,-0.3484,-0.3539,-0.3531,-0.3514,-0.3559,-0.354,-0.3561,-0.3582,-0.3579,-0.3624,-0.362,-0.367,-0.3671,-0.37,-0.3688,-0.369,-0.3704,-0.3712,-0.37,-0.3698,-0.3702,-0.3707,-0.3731,-0.3731,-0.3732,-0.3732,0,-0.3404,-0.344,-0.343,-0.3467,-0.3476,-0.3462,-0.3494,-0.3488,-0.3515,-0.351,-0.3512,-0.3553,-0.3557,-0.3594,-0.3607,-0.3626,-0.3603,-0.3619,-0.3595,-0.36,-0.3568,-0.357,-0.3461,-0.3449,-0.3566,-0.3565,-0.3564,0,-0.3351,-0.334,-0.3376,-0.3377,-0.3391,-0.3392,-0.3398,-0.3441,-0.3445,-0.3469,-0.346,-0.3468,-0.3477,-0.3481,-0.3512,-0.3521,-0.3538,-0.3499,-0.354,-0.3528,-0.3537,-0.3536,-0.3535,-0.349,-0.3489,-0.3487,-0.3486,0,-0.3254,-0.3273,-0.3279,-0.3291,-0.3296,-0.3308,-0.3322,-0.3321,-0.3369,-0.337,-0.3375,-0.3382,-0.3395,-0.3402,-0.3417,-0.3433,-0.3467,-0.3474,-0.3467,-0.3454,-0.344,-0.3447,-0.357,-0.3476,-0.3477,-0.3477,-0.3478,-0.3479,-0.3177,-0.3169,-0.3194,-0.3199,-0.3214,-0.3227,-0.3223,-0.3249,-0.3254,-0.3267,-0.3293,-0.3294,-0.3317,-0.3341,-0.3354,-0.3355,-0.3376,-0.3367,-0.3364,-0.3361,-0.3354,-0.3441,-0.3358,-0.3359,-0.3359,-0.3359,-0.336,0,-0.3082,-0.31,-0.3105,-0.3123,-0.3127,-0.316,-0.3178,-0.3179,-0.3179,-0.3197,-0.3205,-0.321,-0.3217,-0.3249,-0.3259,-0.3254,-0.327,-0.3255,-0.3256,-0.3259,-0.3336,-0.334,-0.3242,-0.3242,-0.3242,-0.3242,-0.3242,-0.3242,-0.3033,-0.3021,-0.3042,-0.3038,-0.3057,-0.3058,-0.3065,-0.3077,-0.3092,-0.3096,-0.3102,-0.3122,-0.3146,-0.3159,-0.3166,-0.3176,-0.3177,-0.3157,-0.3171,-0.3242,-0.3253,-0.3264,-0.3268,-0.3157,-0.3157,-0.3094,-0.3093,-0.3093]}]]